RH
22 31 37 37 33 26 23 20 18 16 14 17 16 16 17 13 15 12 8 10 7 12 10 11 56 92 88 86 86 85 89 95 99 99 99 100 99 97 96 98 100 99 100 100 100 100 100 99 98 97 96 96 98 98 95 94 91 87 86 86 86 84 81 79 77 79 85 88 89 90 89 89 90 90 88 87 87 87 88 87 86 89 92 93 93 92
23 34 35 31 29 23 19 19 16 15 14 14 16 16 14 13 14 10 10 9 7 12 9 24 72 92 85 86 83 85 95 97 98 99 100 99 96 94 95 99 100 99 100 99 100 100 100 100 99 99 100 99 99 98 96 94 91 88 88 90 91 90 87 82 78 80 86 88 88 89 89 88 90 91 89 88 89 90 91 91 91 94 96 95 94 93
30 34 30 27 27 20 16 16 16 15 14 15 17 17 16 14 12 10 11 8 8 12 10 35 81 89 81 84 84 88 93 93 93 92 95 96 94 94 95 99 100 99 100 99 99 100 99 100 100 100 100 99 100 100 98 93 90 89 90 95 97 94 90 86 84 85 85 87 88 88 87 87 90 95 93 91 92 92 92 94 96 95 94 93 93 92
37 33 25 26 26 20 16 14 14 15 15 17 19 21 20 15 12 12 12 9 9 10 11 39 78 86 81 84 84 85 85 88 90 89 91 92 92 93 94 97 99 100 101 100 100 100 100 100 100 100 100 100 100 100 100 97 94 94 96 99 100 98 94 91 92 90 86 89 90 89 89 89 92 96 96 94 93 90 89 92 93 93 91 90 90 89
32 26 21 25 25 23 18 14 14 17 18 17 18 20 19 14 13 12 12 10 7 11 24 53 86 93 87 87 87 86 87 89 90 91 93 93 92 92 92 96 97 97 99 99 100 100 100 100 100 100 100 100 100 100 100 100 99 99 100 100 100 100 95 91 96 95 90 89 89 91 95 95 97 97 97 97 95 89 87 89 89 89 89 87 87 86
25 21 19 22 25 23 19 15 14 16 18 19 18 18 16 14 13 11 10 12 11 14 27 53 86 97 90 90 94 92 94 95 94 94 95 96 96 94 94 97 96 95 95 96 99 98 98 100 100 100 100 100 100 100 100 100 100 100 100 100 100 100 94 90 94 95 91 89 88 90 96 98 100 99 98 97 93 89 87 88 88 88 87 85 85 84
22 19 19 21 23 22 21 18 13 13 18 21 18 16 15 13 13 13 10 13 18 18 21 30 57 86 93 92 94 94 98 98 95 96 96 97 97 95 96 96 96 96 94 95 98 97 98 100 100 100 100 100 100 100 100 100 100 100 100 100 100 99 95 91 92 93 92 91 89 89 92 97 98 99 100 95 90 88 87 87 86 86 85 85 84 83
20 20 20 20 21 22 22 19 13 12 15 18 16 14 16 14 12 13 10 14 19 19 24 24 41 82 97 86 85 92 99 100 98 99 99 97 96 96 96 95 95 95 94 96 99 98 99 100 100 100 100 100 100 100 100 100 100 100 100 100 100 99 96 92 91 92 93 93 92 90 91 95 96 97 98 93 88 87 86 85 85 84 84 83 83 83
19 21 21 19 22 22 21 18 13 12 13 14 13 13 14 12 12 12 11 16 17 16 26 33 48 82 92 79 84 95 99 100 99 100 100 97 95 96 97 96 95 95 93 94 97 97 98 100 100 100 100 100 100 100 100 100 100 100 100 100 100 98 96 94 93 92 92 92 91 88 89 95 98 97 94 90 88 86 85 84 84 84 83 83 83 83
19 20 18 17 21 21 18 15 12 12 14 11 11 13 12 11 11 12 13 14 16 20 27 33 50 77 89 84 90 100 99 98 100 99 97 95 93 95 97 96 94 94 94 93 94 95 96 100 100 99 100 100 100 100 100 100 100 100 100 100 100 99 98 98 96 94 93 92 88 86 90 96 99 96 93 91 88 86 84 84 84 83 82 81 81 82
17 18 17 15 16 16 14 13 12 12 12 10 11 12 10 13 12 13 20 18 20 29 26 28 45 66 86 88 86 93 91 88 97 100 97 94 94 96 95 95 94 93 94 93 93 95 97 99 100 100 100 100 100 100 100 100 100 100 100 99 100 100 99 98 97 95 93 90 88 89 93 95 95 92 91 92 89 86 85 84 84 82 79 78 78 80
16 17 19 15 11 13 12 11 12 11 10 10 11 12 14 19 17 14 21 19 24 35 29 30 37 46 72 84 78 79 77 78 91 98 98 95 96 97 94 92 92 92 94 93 94 98 99 100 100 100 100 100 100 100 100 100 100 100 100 99 100 99 96 95 94 91 89 87 89 93 93 92 91 88 88 90 88 86 85 84 83 80 77 77 78 78
22 19 17 16 12 11 12 13 13 11 12 11 12 18 20 23 22 18 24 29 35 41 35 32 27 27 53 70 65 67 71 76 85 87 91 94 95 97 95 92 91 93 95 94 96 99 99 100 100 100 100 100 100 100 98 97 95 96 97 95 96 97 96 94 92 91 89 90 92 92 90 90 89 86 87 89 87 84 84 83 80 77 76 78 80 77
28 21 16 16 15 11 11 14 16 13 13 12 13 21 23 24 26 24 30 37 38 40 34 24 19 24 44 58 57 59 64 70 78 81 84 88 93 95 92 91 93 94 95 95 97 98 97 99 99 99 100 99 98 97 93 91 91 92 92 92 92 93 94 93 93 93 92 92 92 90 89 88 86 86 87 87 85 84 83 81 77 75 75 78 79 75
36 37 28 18 14 13 11 11 14 13 13 11 12 21 26 27 29 30 36 38 33 36 32 19 22 29 38 52 55 51 54 64 75 81 82 85 90 92 90 91 94 96 96 96 96 96 96 97 97 96 96 95 95 92 89 88 89 89 89 88 88 88 89 89 89 89 89 89 88 86 85 83 82 83 85 85 84 83 81 78 76 74 74 74 74 69
31 40 30 17 13 11 10 11 10 11 15 12 10 19 22 25 33 36 44 53 48 41 32 27 36 37 36 50 56 51 55 69 79 82 85 91 93 91 93 94 94 96 98 96 95 96 95 95 94 94 92 92 92 89 88 88 86 87 87 86 86 85 84 85 84 84 85 84 83 82 81 80 80 80 81 82 82 81 78 76 74 74 73 72 69 64
30 36 24 13 14 11 9 12 8 11 22 19 12 16 15 19 34 38 40 49 48 39 36 44 51 49 52 62 63 64 72 80 86 85 87 95 96 94 96 95 94 96 98 96 94 94 94 93 92 91 90 91 90 88 87 87 85 85 84 84 84 84 83 82 82 81 81 81 80 81 80 79 79 80 80 81 80 79 76 74 73 73 72 69 64 60
35 37 27 13 14 13 8 10 9 10 20 21 13 13 13 13 29 46 49 43 38 37 44 54 58 58 65 72 73 81 90 90 89 88 90 97 98 96 96 94 93 94 95 95 93 92 92 91 90 89 89 89 87 87 86 85 85 83 82 82 82 82 82 81 80 80 80 80 79 79 80 80 80 80 81 80 79 76 74 73 73 71 68 64 60 58
34 35 33 18 13 13 9 11 14 11 11 14 12 12 19 24 27 38 44 38 36 40 36 37 52 62 66 75 84 90 93 93 91 90 94 99 98 95 95 94 94 94 95 95 93 92 90 89 88 88 88 87 86 86 85 84 84 82 81 82 81 82 82 80 80 79 80 79 79 80 80 79 80 80 81 79 76 74 73 73 71 67 64 60 57 56
36 36 33 19 12 13 13 14 18 18 11 11 11 9 20 36 33 27 32 35 37 44 37 30 48 66 65 69 80 85 86 88 91 92 95 98 95 93 94 95 96 96 96 96 94 92 89 87 87 86 86 86 86 86 85 84 82 82 82 81 81 82 82 81 80 79 80 80 80 80 80 80 79 78 78 76 74 73 72 71 67 64 61 56 55 55
38 42 41 29 15 14 20 18 17 20 16 13 16 14 14 20 21 23 30 31 32 46 53 50 58 68 63 59 66 74 77 80 86 90 92 94 92 90 91 93 95 94 93 94 93 89 87 85 84 84 84 85 86 86 85 84 82 82 82 81 82 83 82 82 81 80 80 80 80 80 79 78 76 75 75 75 74 72 69 66 62 59 57 55 54 54
37 51 58 42 20 17 22 18 14 15 16 18 22 24 21 15 20 33 33 25 31 47 54 55 62 68 63 55 59 67 71 74 81 84 88 92 90 89 91 92 92 92 91 92 91 86 86 85 83 82 83 84 86 86 85 84 82 81 81 81 81 82 82 82 81 80 80 79 79 78 76 74 73 74 76 75 73 70 64 61 58 55 54 54 53 52
35 48 53 39 24 20 17 13 13 12 13 15 14 18 23 21 30 48 50 37 31 35 40 41 46 62 73 62 54 59 65 72 79 80 86 91 89 88 91 90 90 90 89 89 88 85 83 83 83 82 82 83 84 86 85 84 82 81 80 81 81 82 82 80 80 80 79 79 78 75 73 73 74 75 75 73 70 67 62 59 57 55 54 53 53 50
41 45 40 30 24 21 16 14 14 10 9 12 14 14 15 20 31 52 66 56 33 27 34 30 29 57 80 69 56 62 68 75 80 80 85 91 89 90 91 91 92 91 90 89 86 85 83 81 81 81 81 82 82 83 84 83 82 81 81 82 81 82 82 79 78 79 79 78 77 77 77 76 76 76 73 69 66 63 61 59 56 55 54 54 53 44
46 52 51 38 27 24 25 21 15 12 12 18 23 15 11 17 23 33 47 42 33 36 36 30 39 64 75 67 67 76 79 82 84 81 85 90 90 91 91 91 92 92 91 90 87 87 85 81 80 79 79 80 80 81 82 81 81 80 81 81 81 82 82 79 78 79 78 78 77 78 78 76 74 73 69 65 63 61 59 58 56 56 55 53 45 34
46 62 74 64 44 34 35 36 32 26 18 19 23 16 11 15 14 24 35 28 34 46 37 36 59 77 79 76 78 84 87 89 90 86 86 89 89 91 92 92 94 94 93 91 89 88 86 83 80 79 78 78 78 79 80 80 80 80 80 79 79 80 79 78 78 78 77 76 77 76 74 72 70 69 67 64 61 60 58 56 55 55 54 46 33 26
51 58 72 76 61 44 39 42 40 30 20 20 21 16 14 17 22 35 37 29 41 50 37 41 69 85 91 90 84 89 93 91 92 91 89 90 91 91 93 93 93 94 91 89 88 87 85 84 80 78 78 76 76 78 78 79 80 80 80 78 77 77 77 77 76 75 74 73 74 74 72 71 69 67 65 62 60 61 59 56 55 55 52 40 27 24
57 49 59 64 57 49 40 32 24 19 24 27 22 19 20 23 32 38 36 40 48 42 34 46 71 89 96 92 87 91 93 90 92 92 87 89 92 91 93 94 94 94 91 88 88 86 85 84 80 77 76 75 75 76 76 78 78 79 79 77 76 77 77 77 74 73 73 71 71 71 69 68 67 64 63 61 61 61 59 57 57 57 54 41 27 24
51 45 51 42 40 49 42 30 23 19 25 27 22 24 27 28 33 34 44 60 48 31 41 57 69 86 91 87 87 87 86 90 90 87 85 86 90 92 94 95 96 96 93 89 88 85 83 82 79 76 75 73 74 74 75 78 78 78 79 77 77 77 76 75 73 73 73 71 70 69 66 65 63 61 60 59 59 60 59 59 59 58 57 45 30 25
46 50 55 40 41 52 43 37 38 27 21 20 21 29 32 36 45 40 44 59 47 37 58 67 67 80 84 81 84 81 81 87 86 85 87 87 90 95 95 96 96 95 92 90 88 84 81 80 76 74 73 72 72 73 75 77 78 78 78 77 76 76 75 73 73 74 73 71 70 68 65 64 63 61 60 59 59 60 60 60 60 60 57 42 28 25
49 59 62 54 51 50 43 45 50 44 32 19 18 28 30 31 41 38 33 42 42 44 60 68 70 78 81 83 88 87 86 90 90 90 89 88 91 95 95 96 95 93 91 88 87 84 80 78 75 72 72 71 70 72 74 76 77 77 77 76 75 74 74 73 74 75 73 71 70 67 65 64 63 62 62 61 61 62 62 62 61 60 52 39 31 28
54 63 65 67 59 46 45 50 53 55 42 21 18 29 29 25 29 35 38 40 41 49 63 71 74 81 87 91 95 94 93 93 93 93 91 90 92 92 95 96 93 92 90 86 85 83 79 77 75 73 72 70 69 72 73 74 76 77 76 76 74 73 73 74 74 74 73 71 69 67 65 64 64 64 63 63 63 63 62 61 60 58 53 50 48 38
58 59 57 68 64 44 44 56 63 59 37 28 45 53 46 42 35 32 35 37 43 58 67 64 65 78 90 92 94 97 97 95 94 91 90 92 92 91 92 92 90 89 87 84 83 81 78 76 74 72 71 69 69 71 72 72 74 76 76 74 73 73 74 74 74 73 71 70 68 66 65 65 65 65 64 64 63 62 61 60 60 61 60 63 63 51
61 60 54 64 60 42 48 63 65 56 43 49 75 76 57 48 39 29 27 31 40 55 59 55 62 80 88 86 92 97 94 92 90 86 84 87 90 91 90 88 89 87 84 83 82 79 77 74 72 70 69 68 68 70 71 72 74 75 75 74 73 74 74 73 73 71 69 68 66 66 66 66 66 66 66 65 65 64 64 62 62 64 65 67 68 60
59 58 50 53 53 51 63 63 50 51 62 72 82 84 73 59 50 42 37 39 46 53 55 58 70 85 85 79 84 90 87 87 86 83 83 83 83 88 89 87 87 85 83 83 80 78 76 73 71 70 68 68 69 71 72 74 75 75 74 74 73 74 73 72 71 69 67 66 66 66 67 67 68 68 67 66 66 66 67 67 67 67 67 68 71 67
58 57 52 50 53 58 59 60 63 65 67 70 71 69 65 56 48 43 34 32 42 50 54 63 73 80 78 76 82 87 86 87 89 86 83 82 82 84 86 86 85 83 82 81 79 77 75 72 71 69 68 69 71 72 74 74 75 74 73 73 73 73 71 71 71 69 66 65 67 68 68 69 69 69 68 67 67 67 68 69 69 69 70 70 72 71
53 52 48 44 54 67 63 66 78 65 48 54 55 46 44 41 40 48 43 33 41 53 57 65 75 77 78 83 89 92 90 93 96 94 86 82 84 83 82 83 82 81 81 78 76 76 72 71 71 69 69 71 72 73 74 73 73 73 73 74 73 70 70 71 71 68 65 65 67 67 68 69 69 69 69 68 68 69 69 69 70 71 72 72 71 72
43 45 49 46 52 73 80 75 68 55 53 64 62 57 62 55 50 62 56 38 44 59 62 67 76 80 86 93 94 92 92 95 99 97 90 85 86 86 84 83 81 80 80 77 75 75 72 71 71 70 70 72 72 72 72 72 73 73 75 76 71 70 72 72 68 65 64 64 65 66 67 66 64 66 68 68 67 67 66 67 69 70 70 71 72 73
44 52 64 63 52 57 73 74 64 57 62 67 65 66 70 64 60 60 51 45 55 63 62 65 74 83 90 94 93 91 93 99 101 96 89 87 88 87 86 86 84 81 78 76 74 74 72 71 70 69 69 70 71 71 71 71 73 74 75 74 71 74 75 70 66 65 63 62 62 63 63 61 59 62 65 66 66 65 66 67 67 68 71 72 69 64
47 51 55 56 50 49 56 60 59 57 52 53 65 70 65 64 59 45 43 60 71 69 64 60 67 84 90 88 90 90 86 89 90 85 84 86 87 86 85 86 86 83 79 76 73 71 71 71 70 69 68 69 69 69 69 70 72 73 72 69 70 74 72 66 64 64 60 59 59 58 58 59 61 63 64 67 68 67 67 66 61 59 60 60 56 52
45 48 50 55 53 51 49 46 50 58 56 54 64 65 57 55 49 43 57 74 70 70 74 63 61 81 89 84 87 84 75 75 77 78 84 87 86 87 85 82 81 80 77 75 73 72 73 72 69 68 67 67 67 67 68 70 71 70 68 67 69 70 66 61 61 60 58 57 54 53 57 61 64 65 65 66 65 64 63 60 53 46 46 50 52 54
43 40 49 55 48 46 54 57 56 57 58 60 63 59 54 54 55 63 76 72 63 72 80 67 63 78 84 81 79 74 73 81 85 84 86 86 85 88 86 82 82 80 76 75 73 72 75 73 69 67 66 65 66 67 67 68 68 66 64 65 66 63 59 56 55 56 56 52 49 53 59 62 62 62 62 61 59 59 59 58 54 52 51 54 56 58
48 41 51 62 56 49 53 56 57 58 62 67 64 54 53 61 70 77 74 64 67 80 79 68 70 77 78 76 76 77 82 88 88 85 85 84 85 87 85 83 83 81 77 77 74 73 74 73 69 67 65 64 65 65 66 67 66 64 62 62 61 57 53 51 51 52 52 50 53 58 59 58 58 58 57 58 57 57 58 57 57 56 54 54 57 58
43 44 53 62 59 53 49 49 58 71 78 77 68 57 56 62 71 77 71 62 67 78 77 72 72 73 70 71 78 85 89 88 86 86 87 85 85 86 85 83 82 80 78 76 75 74 73 71 69 67 65 64 64 65 66 66 63 59 59 60 58 52 48 47 48 50 52 54 56 57 55 55 56 55 54 54 54 54 55 55 56 55 53 54 57 59
48 57 65 62 53 52 58 63 68 76 81 77 70 68 66 66 72 78 73 65 65 72 75 75 74 72 70 72 80 88 87 86 87 86 85 86 86 86 86 83 80 79 78 75 74 74 72 70 68 66 64 63 64 65 64 62 58 55 56 58 54 48 45 46 47 50 54 56 55 54 54 53 51 50 49 48 48 50 51 52 54 54 54 55 56 57
58 68 74 69 60 59 67 73 72 73 75 72 68 69 68 67 73 78 70 64 67 72 76 78 78 77 76 76 80 85 86 86 87 85 84 87 87 86 85 84 81 79 77 76 74 72 71 69 66 64 64 64 63 62 61 58 55 53 55 54 49 44 45 46 47 50 54 55 54 53 52 50 48 47 47 47 47 49 49 50 52 52 52 54 55 55
63 66 68 65 65 66 67 72 74 70 69 69 68 68 66 64 70 75 70 66 69 74 77 79 79 79 78 77 79 84 87 86 86 87 88 87 87 87 87 86 83 80 77 76 73 70 69 67 65 64 64 63 62 61 59 57 53 53 54 51 44 42 44 45 47 51 53 53 54 52 50 50 49 48 46 46 46 46 45 46 46 47 50 52 53 53
59 59 64 67 74 74 65 67 75 72 69 72 73 68 63 59 60 66 70 71 74 76 76 75 75 75 75 77 80 83 86 86 85 88 89 88 87 88 87 86 84 80 77 75 71 69 68 66 64 64 63 62 62 60 57 54 52 54 56 50 44 43 45 46 48 51 53 53 54 53 52 51 49 47 46 46 47 45 44 42 42 45 48 49 48 50
67 63 64 66 75 77 67 65 69 65 62 68 71 70 69 63 57 62 71 75 75 75 72 71 72 73 75 78 80 80 84 87 86 86 88 88 88 88 87 86 84 80 78 75 70 68 67 66 65 64 62 61 60 57 54 52 51 53 54 49 45 46 47 49 51 52 53 55 54 54 53 51 50 50 48 49 50 49 47 47 46 47 47 47 46 45
74 72 73 73 74 77 75 73 71 66 64 66 65 66 69 67 64 67 71 70 68 71 72 71 72 75 75 76 77 79 84 88 87 85 88 88 87 87 86 85 83 81 78 75 71 69 68 66 65 63 61 60 58 55 52 51 50 51 49 46 46 46 47 51 53 53 54 56 54 54 53 52 51 51 50 51 52 52 51 51 48 45 43 42 42 41
70 73 80 84 82 79 79 82 79 75 75 75 71 68 68 70 71 70 67 64 66 73 74 69 69 74 76 74 73 77 84 88 86 86 87 87 85 85 84 83 83 81 78 74 72 70 69 67 64 62 60 59 56 53 52 51 50 48 46 46 48 48 48 51 54 55 56 57 55 54 53 52 52 51 51 52 53 51 51 50 47 43 40 37 38 38
Wind_Speed
5 3 7 10 11 12 11 9 7 4 4 4 4 5 6 5 4 5 6 7 7 6 7 8 8 11 13 11 10 10 8 10 11 10 10 10 10 10 10 10 9 9 8 12 17 17 17 18 19 20 21 21 19 18 19 20 20 21 22 24 24 25 25 25 25 25 25 24 22 20 18 18 17 14 14 13 10 9 9 9 10 11 12 13 12 13
5 8 11 10 7 7 8 7 7 7 8 7 4 4 5 5 5 5 6 8 7 6 5 7 10 11 13 12 11 11 11 12 13 13 13 14 13 11 11 12 11 8 8 11 14 16 18 18 18 19 19 20 19 18 19 19 20 21 21 21 23 24 24 24 24 25 25 24 23 22 21 20 18 15 14 14 12 12 13 13 15 16 16 16 15 14
7 11 9 7 4 5 7 8 8 9 9 7 4 4 5 4 4 5 5 6 5 5 4 8 10 9 8 9 9 10 10 9 10 12 14 16 15 13 13 13 11 10 10 11 11 14 19 18 17 18 18 19 18 17 17 19 20 21 20 21 22 23 24 24 23 24 24 22 22 22 22 21 19 16 14 15 16 17 17 17 18 18 17 16 15 14
8 7 6 7 6 6 6 8 9 8 8 7 5 5 4 4 4 4 6 5 4 5 5 8 7 4 5 6 6 5 6 7 7 8 10 12 14 14 14 13 14 14 12 11 10 10 16 17 16 17 18 18 17 17 17 19 20 20 20 20 21 23 23 23 22 22 22 21 20 21 21 20 18 17 17 19 20 20 20 20 19 18 16 15 14 13
5 4 8 8 8 8 6 8 11 8 7 8 7 6 4 4 4 4 6 6 4 3 4 10 5 1 5 7 6 5 6 9 8 9 10 9 11 13 12 12 13 14 12 12 11 9 12 16 17 18 18 18 18 18 18 18 19 19 19 19 20 22 21 22 21 21 22 22 21 21 21 19 19 20 21 22 21 21 21 20 19 17 14 13 12 11
5 5 11 11 9 10 9 8 11 10 6 8 8 7 7 5 5 6 5 3 4 3 3 9 5 1 3 3 4 5 8 9 9 11 13 12 11 12 12 11 11 11 11 12 13 12 12 15 17 18 19 19 18 18 18 18 18 19 18 18 19 21 21 21 21 21 22 23 24 23 22 21 21 20 20 21 21 21 21 20 18 16 13 11 11 10
5 7 11 12 10 11 11 8 10 10 7 7 5 9 9 6 7 7 1 2 5 4 6 9 6 3 2 3 6 5 9 11 10 12 13 12 11 11 11 10 10 11 10 10 10 12 12 14 17 17 18 20 19 18 18 17 17 18 18 17 19 21 21 22 21 20 21 23 23 23 22 23 23 21 19 21 21 21 20 18 16 15 13 11 10 9
8 10 11 13 12 10 10 9 9 11 9 6 5 9 9 8 9 8 1 1 5 3 5 10 6 4 4 8 10 8 9 11 14 16 13 10 11 11 10 10 11 12 11 10 9 10 11 14 17 17 18 19 19 19 18 17 18 18 17 17 18 21 21 22 21 20 21 23 23 22 22 23 24 23 22 21 21 20 19 17 15 13 12 11 9 9
9 12 12 14 12 9 9 8 8 10 9 5 5 7 7 7 8 6 4 5 5 1 5 8 6 4 3 6 7 5 5 8 13 18 14 12 13 11 10 11 11 11 11 11 10 10 11 14 18 18 18 19 19 19 18 17 18 17 17 17 19 21 20 20 20 19 19 21 21 22 23 23 23 24 24 22 21 20 17 16 15 13 12 11 10 9
7 10 10 12 11 9 9 7 8 10 7 5 6 5 3 4 4 4 5 5 3 3 6 9 7 5 2 5 6 4 5 7 10 13 12 12 13 10 11 12 12 10 10 10 10 10 12 15 17 19 19 19 18 18 19 18 18 18 17 17 19 19 19 19 18 18 18 18 20 22 25 25 24 25 24 22 21 20 17 17 16 14 12 11 10 10
6 8 9 9 10 9 7 7 8 9 5 4 6 5 3 3 1 1 4 3 2 5 7 12 11 6 3 5 8 9 12 15 13 10 11 12 11 11 12 12 12 11 9 10 9 9 13 16 18 19 19 20 20 20 20 19 18 18 17 18 19 19 18 18 18 18 18 20 21 23 25 26 26 26 24 23 22 20 18 18 17 15 14 13 12 11
8 8 7 7 9 10 7 7 7 7 6 5 6 4 2 3 3 1 3 2 5 7 7 12 12 8 6 6 9 12 13 18 18 14 16 16 13 12 13 12 12 11 10 10 10 9 11 13 16 19 19 20 21 20 21 20 19 19 18 19 20 18 18 19 19 19 20 22 24 24 25 26 26 25 23 23 22 20 20 19 18 17 16 16 15 14
6 8 8 7 9 11 9 6 5 6 7 7 5 4 4 2 0 2 4 3 6 6 6 10 10 7 6 7 16 17 12 17 19 18 20 20 16 14 13 13 11 10 11 10 9 9 9 9 13 17 19 20 21 21 21 21 21 21 21 22 22 19 18 19 20 21 22 23 24 24 25 25 24 23 23 23 22 21 20 19 18 18 17 16 16 15
4 6 7 8 7 10 11 7 6 7 9 10 7 5 5 4 3 5 5 2 3 5 6 8 9 5 3 4 16 20 16 20 20 16 18 18 17 16 14 13 11 11 12 10 9 10 9 10 14 17 19 20 20 21 22 22 23 24 23 24 24 23 21 22 22 23 24 24 24 25 25 24 24 24 23 23 22 21 20 18 18 18 17 17 16 16
4 4 6 8 7 10 13 11 8 6 7 9 5 5 5 5 5 5 4 3 4 4 4 5 7 5 2 4 15 21 18 18 16 10 10 12 13 14 12 13 12 12 11 9 9 10 10 13 17 19 20 21 21 22 22 23 23 24 24 25 26 25 24 25 25 25 25 26 25 25 24 24 24 24 23 23 22 21 19 18 18 18 17 17 16 15
5 5 6 8 7 12 14 11 8 6 5 6 4 5 5 6 5 3 3 5 5 2 1 3 3 4 3 1 6 14 12 11 13 10 10 11 12 12 12 13 12 11 10 10 10 10 11 15 19 20 21 21 21 22 23 24 24 25 25 25 25 24 24 25 25 25 25 25 25 24 24 24 24 24 24 23 22 19 18 18 18 18 17 16 16 15
5 5 6 8 8 12 15 12 10 8 6 4 5 6 5 6 6 3 3 2 3 4 3 2 0 1 2 5 4 11 11 11 13 12 12 13 14 13 12 12 12 11 11 11 11 10 11 16 19 21 22 21 22 23 24 24 24 25 25 24 24 23 23 24 24 24 24 25 25 24 24 24 23 23 23 23 21 19 18 18 17 17 17 16 15 15
6 4 6 9 11 12 14 13 10 8 6 5 6 7 3 3 3 4 3 1 3 4 4 0 4 3 1 2 3 11 13 11 13 13 13 13 14 13 12 12 13 13 12 12 12 12 12 16 19 20 21 22 23 24 25 25 24 25 24 24 23 22 22 23 23 24 24 24 24 24 24 23 22 22 22 21 20 20 20 19 18 18 17 16 16 16
2 2 6 8 12 9 9 11 8 7 6 5 6 7 6 4 4 1 2 2 3 4 3 2 3 3 3 5 8 12 14 14 14 14 13 14 15 14 12 13 14 13 11 12 12 11 12 16 19 21 21 23 25 26 26 26 25 24 23 23 22 21 21 21 22 23 22 23 23 23 22 21 21 20 20 19 20 20 20 20 20 20 19 18 17 16
1 2 3 6 10 7 4 6 7 8 7 3 3 5 5 5 4 3 3 3 4 4 2 1 1 2 3 8 15 17 18 18 16 14 14 16 17 15 13 13 14 13 12 11 12 11 12 16 20 22 23 24 26 27 27 27 25 24 23 22 21 20 20 20 21 21 21 21 22 21 21 19 18 17 17 19 20 20 21 22 22 21 20 19 17 16
2 2 2 4 5 7 4 5 9 9 7 4 3 4 4 3 3 2 2 2 4 4 3 3 2 5 5 8 17 20 19 20 20 17 16 16 17 16 15 15 14 14 14 12 13 12 13 17 21 23 24 25 26 27 28 27 26 25 23 22 22 21 20 19 20 20 20 20 20 20 19 17 15 17 20 21 22 23 24 23 22 22 21 20 18 16
3 1 2 1 3 6 6 5 7 9 7 6 4 4 5 5 3 3 1 3 2 4 4 5 3 6 5 6 14 18 18 19 21 20 17 16 18 17 15 16 16 15 15 13 13 13 13 17 21 23 24 25 26 26 27 27 27 26 24 23 22 21 20 19 19 19 20 20 19 18 18 18 19 22 24 24 24 25 25 24 23 23 22 20 18 15
5 1 2 3 4 7 5 2 6 9 7 6 5 3 3 4 4 6 4 4 1 2 2 5 3 5 4 6 13 16 17 18 18 19 17 16 17 16 14 15 15 15 14 14 14 13 14 19 22 23 24 25 25 26 27 27 27 26 24 23 22 21 20 18 18 19 20 19 19 19 20 21 22 23 23 24 25 25 25 25 24 22 21 20 17 14
4 2 2 2 1 0 3 4 3 4 5 5 3 2 3 3 4 5 5 4 3 3 2 3 2 5 5 4 7 8 11 14 14 16 17 15 13 13 14 14 13 13 14 14 12 11 15 20 21 21 22 23 24 25 26 26 26 26 24 23 22 21 20 19 19 20 20 20 20 21 22 22 22 23 24 25 25 25 25 25 24 22 21 19 17 15
3 2 3 3 2 2 1 2 2 1 2 3 3 3 4 4 4 2 2 3 1 3 5 5 4 5 5 3 7 7 8 12 11 11 14 14 13 13 13 13 13 13 13 14 13 12 14 16 17 19 21 22 23 24 25 25 26 25 24 23 23 22 22 21 20 19 19 20 20 21 23 24 25 25 25 25 25 25 25 24 23 23 20 18 17 17
3 2 3 5 5 6 6 5 4 2 2 3 3 3 4 6 6 3 1 3 0 3 4 5 5 3 3 3 10 9 9 11 9 9 10 11 13 14 13 12 13 13 14 15 14 13 13 13 15 18 21 22 23 24 24 26 26 25 24 23 23 23 23 22 20 19 20 20 21 23 25 26 25 24 24 25 25 25 24 24 24 22 19 18 18 18
3 0 2 6 6 6 7 6 5 5 3 3 3 1 3 5 7 5 4 3 4 3 2 4 6 5 3 6 11 11 12 13 11 12 12 11 11 13 12 13 13 13 14 15 14 14 14 13 14 18 21 22 23 24 25 26 27 26 26 24 23 23 23 22 20 20 21 23 23 25 26 25 24 24 25 25 25 24 24 24 23 21 19 17 17 18
4 3 1 5 4 6 7 6 4 6 5 4 5 1 3 3 7 8 4 5 4 4 3 6 6 10 8 9 13 14 14 14 14 15 15 14 13 12 12 13 14 13 14 14 14 15 15 14 14 17 21 22 23 24 25 26 27 28 27 26 25 25 24 23 21 21 22 24 25 25 25 25 25 25 25 26 25 25 25 24 22 21 19 17 17 17
4 2 3 3 3 3 2 1 2 6 5 5 7 4 3 3 8 7 5 6 6 5 7 7 8 11 12 12 14 16 16 16 16 16 14 14 14 14 14 15 15 15 15 16 16 17 17 15 14 17 21 23 24 25 24 25 27 28 28 28 27 26 26 24 22 21 23 24 25 25 25 25 25 25 25 26 25 25 25 24 23 21 18 17 17 17
3 2 4 1 1 4 3 4 6 6 5 4 5 6 5 5 7 7 5 5 6 5 6 8 7 5 8 11 12 12 12 12 12 12 12 15 15 15 16 17 17 17 17 17 17 16 17 17 17 20 23 24 25 25 25 26 28 28 29 28 28 27 26 25 23 21 23 25 24 24 25 25 25 26 26 26 25 25 26 25 24 21 19 18 18 18
2 3 4 1 4 5 4 3 8 7 4 6 5 6 5 5 3 2 2 4 5 1 1 7 9 3 1 4 6 7 8 10 11 13 14 15 16 16 16 16 16 16 16 16 16 15 16 16 17 21 23 24 26 27 27 28 29 29 29 29 28 28 26 24 23 23 25 25 25 25 25 25 26 26 26 26 26 26 27 26 24 22 21 20 19 18
1 1 4 3 4 4 5 4 7 8 6 5 6 7 4 3 1 2 2 4 6 6 4 4 7 4 2 6 9 8 10 12 13 15 14 13 15 16 17 16 16 16 16 16 16 16 16 16 17 20 23 26 29 29 30 31 30 29 30 29 29 28 26 23 24 25 25 26 26 25 26 26 27 27 27 27 26 26 27 27 25 24 22 21 19 18
0 2 2 2 4 4 6 4 7 7 6 2 6 6 4 1 2 2 1 4 6 9 7 5 6 7 9 12 11 10 11 12 12 14 14 14 15 16 16 17 17 17 17 18 18 18 17 17 19 22 24 27 30 31 34 36 35 33 32 31 29 28 25 24 25 26 26 26 26 26 26 27 27 27 27 27 26 27 27 27 25 24 22 20 19 18
2 2 1 1 4 2 6 4 7 5 2 5 6 5 4 2 4 5 2 5 5 5 6 5 4 7 11 14 15 15 15 16 16 15 14 15 15 15 15 16 16 16 16 16 17 17 16 17 21 24 27 30 31 32 34 35 35 35 33 32 30 27 26 26 27 28 27 27 27 27 27 27 27 28 28 28 27 27 26 26 25 23 22 20 19 19
2 2 0 0 4 1 3 6 6 1 5 6 6 4 4 3 6 8 3 2 4 4 9 10 9 10 13 14 17 19 19 18 17 15 15 15 15 16 17 16 15 16 16 15 15 15 15 19 22 24 27 31 32 32 31 31 32 33 33 32 30 28 27 29 30 29 29 28 28 29 29 29 29 29 29 28 27 27 26 26 24 23 22 20 19 18
5 3 1 1 2 2 2 4 3 5 6 5 7 6 2 2 4 5 4 3 3 4 10 14 14 15 13 11 11 11 11 11 10 10 12 15 16 16 17 17 17 17 16 16 16 16 18 22 23 24 26 29 31 31 30 30 32 33 32 31 30 28 30 32 31 29 29 29 29 30 30 30 30 29 29 28 27 27 26 26 25 24 22 20 19 18
7 5 2 2 2 3 3 2 1 2 4 4 4 2 2 2 2 5 4 1 5 3 5 12 15 14 10 7 6 7 10 10 6 4 8 11 13 14 15 16 17 17 16 18 20 22 24 27 26 27 28 29 32 32 32 32 34 33 31 30 29 30 32 32 30 28 28 30 31 31 31 31 30 29 29 29 28 28 27 26 25 24 22 21 21 19
6 5 3 2 1 2 4 3 2 1 2 5 6 5 4 4 6 7 5 1 5 5 1 9 14 12 9 8 9 10 11 9 6 6 8 10 10 9 9 10 13 17 18 21 23 24 26 29 29 30 31 32 33 33 34 36 35 32 31 29 29 31 32 31 29 28 29 31 32 32 32 31 30 30 30 30 29 28 27 26 25 24 22 22 21 18
8 5 4 4 3 2 4 3 1 2 3 6 7 8 7 4 5 6 5 2 7 4 2 6 12 12 11 12 12 12 10 7 7 8 9 12 11 11 11 9 11 16 21 25 27 27 27 29 29 30 33 33 32 32 34 36 34 31 30 29 30 32 32 30 30 30 32 33 34 33 32 31 30 31 31 31 30 29 28 26 25 24 23 22 20 18
7 5 4 3 1 1 3 2 2 2 3 5 5 7 7 3 6 7 2 5 8 5 1 6 10 10 13 15 12 11 10 9 9 10 12 14 13 12 14 14 14 17 20 24 29 30 30 30 30 30 31 32 32 33 35 35 33 31 29 29 30 31 31 31 31 32 33 34 33 32 32 32 32 32 32 31 31 30 28 25 23 24 24 23 21 20
3 3 2 2 1 1 3 1 1 2 3 4 5 7 6 2 8 5 5 7 5 6 3 7 11 10 12 14 12 10 9 7 5 8 13 15 13 12 14 18 21 23 25 27 29 30 30 30 31 32 32 32 34 35 36 35 32 29 29 30 30 31 31 31 31 32 33 33 33 32 33 33 32 32 31 31 30 29 27 24 24 25 25 24 22 20
1 1 1 2 2 1 2 3 0 3 3 3 4 4 0 4 3 4 6 4 3 7 5 5 12 12 13 14 11 8 6 4 7 13 16 16 15 13 13 16 18 20 23 27 29 30 28 27 29 32 33 34 36 36 36 35 31 29 29 30 30 31 31 32 33 33 33 33 33 33 33 32 32 31 31 30 29 28 27 26 24 24 23 23 21 19
3 2 1 2 3 2 3 3 1 2 4 3 3 4 4 3 5 6 3 2 4 7 4 4 10 12 13 12 7 4 5 6 10 14 16 15 15 15 15 17 18 19 22 25 28 30 29 25 26 30 32 34 36 36 36 35 32 29 30 30 31 31 32 34 35 33 32 33 33 33 33 33 32 32 31 30 29 29 28 27 25 23 22 22 21 20
2 2 2 2 2 3 3 1 2 4 5 4 1 2 2 3 4 5 3 2 4 4 2 4 8 11 13 11 7 6 8 9 10 13 14 14 14 14 15 17 19 21 24 26 28 29 29 26 26 28 30 33 35 35 35 35 33 30 30 32 33 33 34 36 35 34 34 34 34 34 34 33 33 32 31 31 30 29 28 27 26 24 22 21 21 20
1 3 4 3 1 2 4 4 4 3 5 4 2 1 2 3 1 4 6 2 2 2 1 5 6 8 10 10 9 9 9 10 12 14 14 14 13 13 14 16 19 22 25 26 28 29 29 27 27 28 28 30 32 33 34 36 34 31 31 33 35 35 36 36 35 35 35 35 34 35 35 33 33 32 31 30 29 28 28 27 27 26 23 22 21 20
3 3 2 3 1 1 1 0 1 1 3 4 5 3 2 4 3 2 4 3 1 2 2 4 6 6 7 9 10 8 7 9 11 11 11 12 11 11 12 14 18 22 24 25 26 28 28 27 28 29 28 28 30 33 34 35 35 34 33 35 36 37 37 37 36 35 36 35 35 36 35 34 33 31 29 28 27 26 27 28 28 27 25 24 22 21
4 2 3 3 3 2 1 2 2 1 2 5 6 5 5 6 5 4 5 3 2 3 5 5 6 6 5 7 10 9 8 9 11 9 8 10 11 11 11 12 15 21 24 26 27 29 28 26 26 28 28 28 30 32 33 33 34 35 36 36 37 37 38 37 37 36 35 36 36 36 35 35 33 31 29 28 26 25 25 26 27 27 26 25 24 23
3 3 3 3 3 2 2 5 5 3 4 6 5 4 3 5 6 6 4 3 3 5 5 5 6 6 4 5 9 11 10 10 11 11 9 9 9 10 11 12 16 20 23 25 28 29 28 26 26 27 28 29 30 32 33 33 33 35 37 38 37 39 39 38 37 37 36 36 36 35 35 34 33 31 30 28 26 26 25 26 26 26 25 24 24 23
1 3 2 2 2 1 1 3 2 2 5 6 4 4 4 1 5 6 6 5 6 6 5 6 5 5 6 7 9 11 10 8 9 11 11 9 9 9 10 13 18 21 22 25 28 28 27 26 27 27 27 28 30 32 33 33 33 35 38 38 39 39 38 37 37 36 36 35 35 35 34 34 32 31 30 28 26 26 25 25 24 23 23 22 22 22
2 2 2 3 3 1 2 3 3 4 1 2 2 3 5 2 5 6 6 6 5 4 6 7 6 4 7 8 9 11 11 8 8 10 11 9 9 11 13 16 18 19 21 25 26 26 26 27 27 28 28 27 29 31 31 32 33 35 37 39 39 39 38 36 35 35 34 34 34 34 34 33 32 32 31 29 27 25 23 22 21 21 21 21 21 21
3 3 2 4 4 4 6 5 4 4 3 4 4 3 4 3 6 6 5 4 2 3 5 7 6 5 5 5 7 10 12 10 9 11 10 9 11 15 18 20 21 20 22 25 25 24 25 26 27 28 28 27 29 31 31 32 33 34 37 39 40 39 39 38 36 34 34 34 34 35 35 34 34 32 30 28 26 24 23 21 20 20 20 19 19 19
Wind_Direction
161 190 212 207 209 203 202 191 188 246 266 214 190 197 201 188 214 208 203 215 166 155 209 181 152 153 158 170 162 155 147 133 137 137 138 142 143 147 145 139 134 127 128 134 138 140 139 143 149 154 160 162 164 167 167 165 161 159 157 156 156 161 166 167 169 171 168 164 162 161 161 163 166 167 164 160 157 151 144 133 123 117 112 111 108 103
166 212 223 210 204 195 192 175 171 223 257 256 234 220 220 197 214 222 206 215 172 153 210 159 141 163 168 169 166 155 150 152 154 150 150 149 148 150 145 142 137 131 135 137 141 144 141 143 148 153 159 163 165 164 166 166 163 162 161 159 159 162 166 169 172 175 173 170 166 161 161 165 162 159 159 152 139 129 124 119 116 114 112 110 108 105
203 223 214 183 189 189 179 168 175 212 238 253 238 218 239 206 203 235 232 228 180 164 202 152 147 169 165 156 157 155 156 160 158 153 153 151 151 153 150 148 143 141 145 147 148 147 144 143 145 151 160 166 165 162 166 169 166 167 166 165 165 167 168 170 172 174 175 173 169 163 163 164 157 152 149 139 128 121 118 115 116 115 113 113 111 110
210 217 173 162 192 197 187 175 180 209 229 241 224 195 235 226 192 212 235 244 191 175 168 140 139 143 121 115 131 145 140 133 132 134 141 151 153 154 156 153 149 149 148 149 148 143 144 144 146 154 162 167 164 162 167 170 168 169 168 167 168 170 170 170 170 172 174 171 168 163 160 159 152 142 135 128 121 119 116 114 115 114 113 115 114 113
221 180 162 175 193 194 203 188 186 206 224 234 222 191 214 230 225 214 222 231 192 174 130 115 92 60 137 134 138 132 120 127 131 133 141 152 150 149 155 155 152 151 147 145 145 146 148 149 152 157 162 167 166 165 167 168 170 169 167 166 169 170 169 170 170 169 171 169 165 159 153 149 141 133 128 123 118 116 117 115 113 112 112 113 110 106
235 199 172 183 198 198 209 201 194 197 211 243 228 198 205 212 238 249 233 201 158 202 181 128 108 273 178 158 158 136 129 139 143 147 155 155 150 152 158 160 155 149 148 145 146 154 157 153 155 157 161 166 165 165 166 167 171 172 169 169 169 169 169 171 171 169 170 167 165 161 153 145 137 130 126 123 121 119 118 115 113 111 109 107 101 96
219 211 179 187 201 201 210 214 204 190 197 242 201 176 203 209 230 245 234 116 166 210 216 177 165 171 173 243 243 183 144 151 154 157 162 157 156 162 163 164 159 152 152 149 149 155 155 154 156 157 161 165 164 165 166 169 174 174 172 173 171 169 170 174 172 169 168 165 164 162 157 149 141 134 127 124 125 123 120 117 114 110 103 98 93 88
189 199 187 190 199 204 212 213 206 190 198 227 149 155 192 205 228 237 176 192 225 232 226 204 169 130 173 203 219 200 151 153 160 161 164 162 164 166 165 168 164 159 158 153 153 154 153 157 160 159 162 165 165 165 168 172 176 175 172 173 172 168 170 174 173 171 169 166 162 159 155 148 142 136 130 127 127 125 123 118 111 106 99 92 87 81
187 201 193 186 195 210 213 208 200 194 208 225 165 161 181 195 219 217 185 235 251 254 241 219 150 125 194 175 184 199 164 164 166 166 168 169 170 167 164 171 167 162 163 158 157 158 156 156 159 161 162 164 166 166 168 171 175 174 169 167 170 168 169 172 174 174 172 168 162 157 151 142 137 136 134 132 129 127 125 116 108 103 97 89 82 77
189 203 194 186 199 209 204 209 203 194 210 240 209 185 183 210 212 180 190 223 242 229 230 218 179 136 152 158 157 185 205 193 177 173 176 173 172 169 166 172 168 163 165 163 160 159 154 151 156 160 156 157 162 163 166 170 173 172 166 163 164 166 167 167 170 173 173 169 162 155 148 140 138 138 136 135 131 127 124 115 107 102 94 87 82 80
223 210 197 194 203 196 188 207 208 189 187 248 238 207 220 265 358 171 210 169 185 245 226 207 194 146 143 189 177 184 192 182 172 174 183 179 175 170 171 174 169 164 165 162 158 152 148 147 149 150 146 147 153 158 161 162 164 165 162 159 156 158 161 162 164 167 165 162 156 151 147 144 143 142 139 134 129 127 123 115 107 100 93 91 89 89
251 227 211 204 197 179 175 202 207 189 181 228 239 180 181 284 6 316 272 131 187 246 238 199 187 166 174 195 194 201 194 174 170 177 182 182 177 170 172 172 167 164 159 156 155 150 147 144 141 141 139 141 146 149 150 149 149 150 151 152 149 150 155 158 160 162 160 157 152 149 148 147 146 145 142 135 130 128 123 115 108 102 99 97 94 90
252 238 221 207 195 182 179 190 197 196 195 218 228 148 146 201 174 220 240 217 208 244 242 184 171 190 206 192 192 197 191 179 182 184 179 175 170 169 170 165 163 160 154 155 156 152 150 143 139 140 138 140 143 143 141 140 140 139 140 143 141 142 149 154 157 159 159 157 153 151 151 150 149 147 143 137 133 129 124 116 109 105 103 99 94 89
238 258 233 206 194 186 186 184 189 202 198 206 210 159 158 166 159 204 223 236 224 247 240 175 162 205 246 191 189 187 184 188 191 188 176 168 165 167 164 158 156 155 154 156 155 152 150 145 143 142 140 141 143 141 137 136 137 135 135 138 136 135 142 148 150 152 152 151 152 153 152 151 149 146 142 138 134 129 122 114 109 108 105 99 94 90
201 245 230 207 188 181 193 196 187 179 188 207 193 130 155 170 164 201 208 193 212 248 254 170 163 191 191 212 197 187 185 184 179 172 160 155 161 162 156 153 153 153 155 154 151 150 148 145 144 142 142 144 143 139 137 136 138 137 136 137 134 133 138 142 143 145 145 145 148 151 150 148 147 144 139 135 132 127 120 114 112 110 105 100 96 93
197 238 226 210 196 181 192 201 181 150 175 204 160 137 188 180 157 194 197 180 182 187 217 179 188 193 160 299 193 168 163 158 149 146 142 147 162 161 154 155 156 155 154 154 153 148 144 145 145 145 145 145 142 139 139 140 141 139 138 138 135 135 138 140 141 141 141 143 145 147 146 144 143 141 137 132 129 124 119 117 116 112 106 103 102 101
182 253 236 198 204 195 189 193 184 172 175 173 168 192 202 156 134 140 203 211 111 136 215 207 101 252 75 16 52 120 127 138 144 152 156 158 166 163 157 158 158 157 154 155 156 151 148 148 148 149 148 145 143 142 141 142 144 143 141 139 137 136 138 139 140 140 140 141 141 141 142 141 140 138 135 132 128 122 119 118 118 114 108 108 110 111
158 246 264 197 201 210 193 187 196 193 166 150 189 197 156 148 155 109 148 299 80 155 250 266 143 181 95 42 87 118 129 151 161 162 159 160 167 165 161 162 159 157 154 151 152 151 150 149 148 149 148 146 146 144 143 144 145 144 143 143 141 139 139 140 140 140 141 141 139 138 138 138 138 136 133 131 127 124 123 121 118 116 114 116 120 120
147 224 280 210 194 209 191 181 206 229 197 164 181 173 141 178 227 138 161 208 136 169 270 341 163 183 147 153 152 142 152 168 173 168 160 165 171 167 163 161 156 155 153 148 150 153 151 150 149 148 146 145 145 145 145 145 145 144 145 146 144 142 142 142 142 141 141 142 140 138 138 138 137 135 133 130 129 129 127 123 121 123 124 126 128 127
321 177 268 224 187 175 160 169 194 224 224 189 143 168 162 160 180 186 181 172 154 173 201 14 308 254 205 169 160 163 170 172 175 175 169 172 174 169 163 160 157 158 157 152 154 156 152 151 150 149 146 144 145 145 144 145 145 145 146 146 145 144 144 145 146 144 141 141 141 138 137 136 135 136 136 136 136 133 128 126 128 130 132 132 132 132
300 179 239 255 176 153 175 204 195 197 206 182 147 186 190 163 164 162 168 164 139 148 163 152 222 265 250 178 165 169 173 174 176 176 173 176 176 171 166 161 161 162 158 156 156 154 152 150 150 149 146 144 144 143 144 146 147 148 148 149 148 148 147 148 148 147 143 141 141 138 136 134 134 136 136 136 134 130 128 130 133 134 134 134 133 134
237 212 190 220 155 173 215 222 183 179 179 159 155 193 183 170 154 119 215 253 127 135 165 151 191 264 258 178 168 170 174 178 178 173 172 177 175 171 169 164 162 161 159 157 155 154 151 149 150 149 145 144 144 144 146 147 148 149 150 151 152 151 151 152 152 151 147 144 141 138 136 135 134 134 132 131 131 131 132 134 135 136 135 131 129 131
210 161 147 192 187 191 218 192 151 167 169 151 156 181 154 143 131 129 185 241 137 139 163 123 156 269 264 192 179 177 177 176 174 172 171 174 173 168 165 163 160 159 158 155 154 153 151 150 152 149 145 145 147 147 149 149 150 151 152 154 154 153 153 154 154 153 150 147 144 140 138 137 137 137 135 133 134 135 135 135 136 138 135 129 126 123
204 175 160 216 266 289 319 354 80 139 146 149 171 159 132 147 158 149 168 183 168 189 159 115 185 263 281 221 182 169 165 163 170 174 167 164 167 163 159 159 158 155 153 152 151 150 148 150 152 149 147 148 149 150 151 150 150 151 153 155 155 153 154 154 153 153 152 151 149 148 147 144 143 143 141 137 136 136 136 136 136 136 133 128 123 118
202 192 123 119 99 92 311 320 348 33 134 167 199 181 162 163 162 169 141 106 156 212 158 141 195 250 282 206 143 126 140 155 168 171 161 159 161 160 158 156 154 152 150 151 151 149 149 151 153 151 152 152 151 151 150 149 150 152 154 156 155 154 155 155 155 156 158 157 153 152 150 147 145 144 142 139 138 137 138 138 137 135 132 127 122 119
163 178 110 123 153 167 182 202 211 200 184 189 177 173 183 161 154 188 159 99 244 237 148 146 193 246 299 146 135 131 137 146 151 154 157 163 161 158 157 154 153 153 153 153 153 152 152 153 152 152 153 154 153 152 150 150 152 154 155 157 158 158 158 159 160 160 160 160 156 151 149 147 146 145 144 143 141 140 141 140 138 134 130 126 123 119
103 122 118 133 157 177 187 214 206 158 160 195 159 142 239 179 138 118 113 147 191 192 184 208 176 141 148 156 144 143 149 150 153 158 161 165 160 156 155 153 154 155 155 155 155 155 155 154 152 152 154 155 154 153 153 153 154 155 157 159 162 163 162 162 162 160 158 156 153 149 148 147 147 147 146 146 145 144 143 141 138 133 127 126 122 117
84 353 307 141 169 194 192 221 204 139 135 167 154 148 277 189 123 106 144 192 162 140 233 246 164 139 164 181 162 158 161 160 164 168 167 165 160 155 152 150 151 154 155 156 157 157 158 157 153 152 155 156 155 155 155 155 156 158 160 161 163 164 165 164 163 160 156 153 150 149 149 148 148 148 148 146 144 143 142 140 137 132 128 125 118 112
101 328 274 201 232 234 157 109 121 132 135 144 149 171 237 178 134 134 185 190 148 162 215 215 173 158 170 184 176 168 166 167 170 169 163 160 156 152 152 153 154 157 158 160 163 163 162 161 157 155 157 157 158 157 155 154 157 159 160 162 164 165 167 167 166 162 158 154 152 150 150 150 150 150 149 148 146 144 142 141 137 132 128 122 114 109
111 250 269 239 341 345 25 61 66 90 130 152 159 177 186 169 153 154 178 172 160 194 202 164 148 154 173 180 178 169 163 159 159 155 152 156 158 157 159 159 161 163 163 164 167 167 166 164 161 158 158 158 160 158 153 154 158 160 161 163 165 166 167 170 170 165 159 157 155 153 153 153 152 151 150 149 148 147 145 143 139 135 127 119 112 108
75 241 276 15 50 347 328 53 52 51 121 174 211 214 172 132 122 141 153 155 150 126 75 133 125 88 260 158 127 123 134 136 145 155 159 163 163 162 162 163 164 166 166 166 167 168 169 166 163 163 160 159 160 158 155 157 161 162 162 164 166 166 167 170 169 164 161 159 157 157 157 156 154 153 150 148 147 148 148 146 142 136 128 119 112 107
58 249 314 24 63 323 310 57 47 32 82 149 239 246 201 139 160 199 184 190 165 119 79 113 133 145 174 117 103 112 131 142 157 162 162 164 165 164 165 166 168 169 168 168 169 170 172 170 169 169 164 160 160 160 158 160 162 163 164 165 165 166 168 170 167 163 162 160 160 160 159 158 156 154 151 148 145 146 148 147 143 137 131 123 115 107
125 90 344 45 86 300 301 62 65 48 77 162 247 231 192 166 181 177 219 234 185 135 132 172 180 174 158 136 130 136 141 154 170 169 165 166 166 168 170 169 172 174 172 172 173 174 174 173 172 170 164 161 162 164 164 164 165 166 166 165 164 166 169 167 165 164 163 162 163 163 162 161 160 157 155 151 147 146 147 147 144 140 135 128 120 111
249 121 184 137 109 285 302 35 62 58 126 228 244 195 167 162 157 154 179 237 213 139 133 160 158 155 153 147 149 157 164 175 180 176 171 166 163 169 173 174 176 176 175 175 176 176 174 172 171 168 165 165 166 166 167 166 165 164 164 163 164 168 169 167 167 166 165 165 166 165 163 163 161 158 157 155 152 148 147 147 146 143 140 135 128 117
196 130 141 36 110 139 334 48 72 191 227 246 280 257 207 177 153 145 126 260 233 144 121 125 140 164 171 166 165 170 177 178 172 170 171 168 168 170 171 177 178 176 177 178 176 177 175 170 169 166 166 167 166 165 164 163 161 160 160 162 166 168 169 169 169 168 167 168 169 167 165 163 160 158 157 157 157 154 150 148 147 146 145 141 135 126
142 131 94 39 99 114 38 75 140 234 260 290 314 298 237 119 110 121 95 351 290 170 144 146 162 178 178 171 167 165 162 156 152 162 172 173 174 173 172 176 179 177 179 178 175 175 172 170 168 165 164 164 163 161 161 160 160 159 160 164 166 166 168 170 170 169 170 171 170 169 167 165 162 160 159 160 160 159 155 151 148 147 148 146 140 133
127 121 75 34 79 129 110 98 217 282 313 320 319 292 195 145 142 143 134 300 293 264 171 162 167 172 164 142 125 117 113 114 126 172 188 182 182 182 178 177 176 177 177 174 174 173 170 170 169 164 162 162 163 163 161 161 161 160 160 164 165 166 169 171 170 171 173 172 170 169 169 167 165 163 163 163 162 161 160 157 153 151 150 148 145 139
96 114 126 94 35 88 98 68 10 24 274 257 256 268 260 208 179 145 111 327 283 300 283 168 163 158 140 122 121 123 119 123 156 196 196 187 182 180 179 177 173 172 170 168 170 170 170 171 169 165 164 164 165 166 164 163 163 162 163 166 166 167 170 170 171 174 174 172 171 170 170 170 169 167 165 165 164 162 161 160 158 158 156 152 148 144
63 72 103 93 36 34 98 107 157 181 229 243 249 271 273 216 158 114 80 307 269 293 342 165 162 151 141 139 140 139 133 146 191 205 189 180 177 171 169 169 169 170 169 169 169 170 170 170 167 166 165 165 167 168 165 163 164 163 165 168 168 169 171 172 175 177 175 172 172 173 173 172 169 166 165 165 165 162 160 158 159 162 162 158 152 145
49 34 55 73 19 14 103 114 204 205 247 262 265 272 260 194 95 87 116 255 265 281 283 158 162 160 152 148 149 153 157 176 203 205 182 169 168 169 169 168 168 169 169 169 171 170 169 167 165 165 166 167 167 167 165 165 165 165 167 170 170 170 172 175 179 179 175 173 174 175 175 171 167 167 168 168 167 163 161 160 159 160 159 156 149 141
45 34 65 124 150 105 111 124 262 260 266 277 277 264 245 108 68 89 201 229 260 282 266 156 159 166 158 153 160 175 186 193 185 164 157 154 158 167 171 170 169 169 169 170 171 169 167 166 165 166 168 169 168 167 167 166 166 166 168 170 170 171 173 177 180 177 174 175 176 175 173 171 170 172 173 170 167 164 163 162 158 154 151 149 147 145
100 41 52 143 158 163 128 126 269 272 254 258 277 279 305 86 100 216 226 223 240 271 276 157 157 167 165 168 178 182 179 156 124 137 148 155 160 162 164 164 165 167 168 168 169 169 167 166 166 166 168 169 169 169 169 167 166 167 168 169 172 173 173 176 177 176 176 176 175 174 173 173 173 174 172 169 167 166 166 164 159 154 150 150 151 152
159 155 244 208 184 143 80 77 85 221 242 277 322 352 43 104 193 216 245 293 250 255 261 159 160 167 167 175 186 150 121 123 133 145 152 155 158 159 163 166 165 165 166 167 168 169 166 164 167 168 167 169 170 170 170 168 167 167 168 171 173 172 173 174 175 176 177 175 174 174 174 173 173 173 171 170 170 170 169 168 164 159 156 157 159 160
130 160 196 220 192 128 113 182 202 210 248 283 21 137 200 223 201 174 160 268 276 262 219 155 165 172 167 165 162 133 126 134 140 145 150 154 159 163 166 168 166 164 166 167 169 169 165 163 165 167 168 169 170 170 170 169 168 168 170 172 173 172 172 173 173 175 176 175 174 173 173 172 173 174 172 172 173 173 172 171 169 165 165 167 169 170
228 205 174 161 178 154 164 199 220 235 268 311 38 144 248 296 257 157 151 164 289 290 189 150 159 170 161 150 144 140 142 148 149 152 156 159 162 164 164 167 167 165 166 167 168 168 166 163 163 165 168 170 169 169 171 171 170 169 170 172 173 173 172 172 172 173 174 174 173 172 171 172 173 175 175 175 175 175 175 175 174 173 174 177 179 180
252 247 147 115 81 66 112 139 12 349 323 356 11 348 2 25 13 74 91 74 6 5 73 124 139 148 145 139 136 136 144 149 147 149 154 153 154 159 159 161 163 163 163 165 166 167 166 163 162 164 167 169 170 171 172 174 173 171 169 171 174 174 172 172 172 171 171 172 172 171 171 172 174 176 176 175 175 175 175 177 177 178 182 185 187 188
299 346 65 87 79 78 44 320 324 331 341 12 15 354 13 32 17 22 50 34 4 57 78 101 110 108 118 129 129 127 133 139 137 137 144 148 151 156 156 155 159 163 165 166 166 167 166 164 164 165 166 169 171 172 172 175 176 172 170 172 173 173 172 172 171 169 169 170 170 170 171 173 175 175 174 172 172 174 177 179 181 182 186 190 191 192
313 9 52 61 61 113 210 270 283 306 343 11 25 359 357 34 27 14 19 21 42 67 76 87 97 100 101 115 126 130 136 145 147 145 147 152 154 156 157 157 159 162 165 166 166 167 167 167 167 167 167 169 171 172 173 175 175 173 173 174 174 174 173 173 171 169 169 169 169 170 172 174 175 174 172 173 176 180 181 183 184 186 188 190 192 193
305 1 36 71 52 64 223 263 268 35 11 4 5 325 296 39 51 21 7 32 65 83 81 69 81 120 136 136 135 134 136 149 153 145 144 150 153 153 155 156 158 161 162 164 167 168 169 170 169 167 168 170 172 173 174 174 174 175 175 175 175 174 173 171 170 169 168 168 169 170 172 175 175 174 174 176 181 185 187 189 193 195 197 197 197 195
61 12 22 89 97 150 214 212 181 136 122 267 287 312 306 346 56 37 13 28 59 115 114 83 63 88 129 142 143 136 136 147 152 145 145 150 153 154 154 154 157 160 162 165 169 170 170 171 172 169 169 171 172 173 174 174 175 176 175 174 174 175 173 170 168 168 168 169 170 171 174 176 176 176 178 181 183 185 187 188 191 194 196 196 193 191
137 172 177 137 157 216 225 209 178 140 159 226 254 311 332 21 62 51 23 26 66 161 143 113 94 96 122 142 143 139 140 145 150 148 147 150 155 157 158 159 160 162 165 168 171 171 171 172 173 172 171 171 173 174 175 175 176 176 175 174 175 176 174 171 169 169 170 171 171 173 176 177 178 180 182 184 185 185 182 178 176 178 183 184 183 183